Location: Laterina
(43.5167°N, 11.7167°E)
Time: 16:33:35
(UTC+00:00)

ATLAS 3B R/B - Pass Details

Date: 24 September 2020
Orbit: 1016 x 1179 km, 63.8° (Epoch: 04 October)

Event Time Altitude Azimuth Distance (km) Brightness Sun altitude
Rises 20:21:06 0° 321° (NW) 3,849 6.6 -33.9°
Reaches altitude 10° 20:23:44 10° 318° (NW) 2,913 5.8 -34.3°
Enters shadow 20:29:49 57° 264° (W) 1,282 3.1 -35.2°
